Back to catalog

STARLINK-31515

AliveCommunicationsVLEO
NORAD 59476·PAYLOAD·🇺🇸 United States

Launched Apr 10, 2024 from Cape Canaveral Space Force Station

Loading…

Next Passes (next 24 hours)

TLE

FreshSource: CelesTrak SupGP

Epoch: Sep 14, 2026, 13:31 UTC

1 59476C 24068X   26257.56368056 -.00031825  00000+0 -11527-2 0  2577
2 59476  43.0033  47.8297 0001369 266.7173 279.6645 15.27595176    12

Track STARLINK-31515 in real time with AllMySat

Download on the App Store